Tracking 25689 objects as of 7-Jul-2022
HD Live streaming from Space Station
objects crossing your sky now

FENGYUN 1C DEB

Track FENGYUN 1C DEB now!
10-day predictions


NORAD ID: 31626
Int'l Code: 1999-025CAG
Perigee: 763.6 km
Apogee: 801.5 km
Inclination: 101.3 °
Period: 100.4 minutes
Semi major axis: 7153 km
RCS: 0.0152 m2 (small)
Launch date: May 10, 1999
Source: People's Republic of China (PRC)
Launch site: Taiyaun Space Center, China (TSC)

Note: This is SATELLITE DEBRIS
aabbcc
Your satellite tracking list
Your tracking list is empty




NASA's NSSDC Master Catalog

Two Line Element Set (TLE):
1 31626U 99025CAG 22187.35886403  .00002852  00000-0  10231-2 0  9996
2 31626 101.3025  27.5792 0026535 293.5017  66.3370 14.34893393458821
Source of the keplerian elements: AFSPC